When you browse on this site, cookies collect data to enhance your experience and personalize the content and advertising you see.
Visit our Privacy Policy to learn more. By continuing to use the site, you agree to this use of cookies and data.
  • In Hungary
  • List of Countries
  • For 7 days
  • Water Temperature
  • Weather Map
  • News
  • Weather Widgets
  • user-avatar
    Login

    Hourly Weather Adilabad

    Today, 7 December, Saturday

    Time Temperature Precipitation Wind Pressure Humidity
    00:00 +19°C° 0 mm 1 mps 739 mmHg 60%
    01:00 +19°C° 0 mm 1 mps 739 mmHg 61%
    02:00 +19°C° 0 mm 1 mps 739 mmHg 61%
    03:00 +18°C° 0 mm 1 mps 739 mmHg 61%
    04:00 +18°C° 0 mm 1 mps 739 mmHg 60%
    05:00 +16°C° 0 mm 0 mps 739 mmHg 59%
    06:00 +19°C° 0 mm 1 mps 740 mmHg 56%
    07:00 +20°C° 0 mm 1 mps 740 mmHg 53%
    08:00 +20°C° 0 mm 2 mps 741 mmHg 50%
    09:00 +23°C° 0 mm 2 mps 741 mmHg 46%
    10:00 +24°C° 0 mm 2 mps 740 mmHg 43%
    11:00 +26°C° 0 mm 2 mps 740 mmHg 39%
    12:00 +27°C° 0 mm 2 mps 739 mmHg 38%
    13:00 +28°C° 0 mm 2 mps 739 mmHg 37%
    14:00 +28°C° 0 mm 2 mps 738 mmHg 36%
    15:00 +27°C° 0 mm 2 mps 738 mmHg 40%
    16:00 +26°C° 0 mm 2 mps 738 mmHg 44%
    17:00 +25°C° 0 mm 2 mps 738 mmHg 48%
    18:00 +24°C° 0 mm 1 mps 739 mmHg 49%
    19:00 +23°C° 0 mm 1 mps 739 mmHg 51%
    20:00 +22°C° 0 mm 1 mps 740 mmHg 52%
    21:00 +22°C° 0 mm 1 mps 739 mmHg 53%
    22:00 +21°C° 0 mm 1 mps 739 mmHg 54%
    23:00 +21°C° 0 mm 1 mps 739 mmHg 55%

    Tomorrow, 8 December, Sunday

    Time Temperature Precipitation Wind Pressure Humidity
    00:00 +20°C° 0 mm 1 mps 739 mmHg 56%
    01:00 +18°C° 0 mm 0 mps 739 mmHg 57%
    02:00 +18°C° 0 mm 0 mps 738 mmHg 58%
    03:00 +17°C° 0 mm 0 mps 739 mmHg 60%
    04:00 +17°C° 0 mm 0 mps 739 mmHg 61%
    05:00 +17°C° 0 mm 0 mps 739 mmHg 62%
    06:00 +18°C° 0 mm 0 mps 740 mmHg 60%
    07:00 +21°C° 0 mm 1 mps 740 mmHg 57%
    08:00 +23°C° 0 mm 1 mps 741 mmHg 54%
    09:00 +24°C° 0 mm 1 mps 741 mmHg 50%
    10:00 +26°C° 0 mm 1 mps 741 mmHg 46%
    11:00 +28°C° 0 mm 1 mps 741 mmHg 41%
    12:00 +29°C° 0 mm 1 mps 740 mmHg 40%
    13:00 +29°C° 0 mm 1 mps 739 mmHg 38%
    14:00 +30°C° 0 mm 1 mps 738 mmHg 36%
    15:00 +29°C° 0 mm 1 mps 738 mmHg 40%
    16:00 +27°C° 0 mm 1 mps 738 mmHg 44%
    17:00 +26°C° 0 mm 2 mps 738 mmHg 48%
    18:00 +25°C° 0 mm 2 mps 739 mmHg 49%
    19:00 +24°C° 0 mm 1 mps 739 mmHg 50%
    20:00 +23°C° 0 mm 1 mps 740 mmHg 51%
    21:00 +23°C° 0 mm 1 mps 739 mmHg 52%
    22:00 +22°C° 0 mm 1 mps 739 mmHg 53%
    23:00 +22°C° 0 mm 1 mps 739 mmHg 54%

    Day after tomorrow, 9 December, Monday

    Time Temperature Precipitation Wind Pressure Humidity
    00:00 +21°C° 0 mm 1 mps 739 mmHg 55%
    01:00 +19°C° 0 mm 0 mps 739 mmHg 56%
    02:00 +19°C° 0 mm 0 mps 738 mmHg 57%
    03:00 +18°C° 0 mm 0 mps 738 mmHg 59%
    04:00 +18°C° 0 mm 0 mps 738 mmHg 61%
    05:00 +18°C° 0 mm 0 mps 738 mmHg 63%
    06:00 +21°C° 0 mm 1 mps 739 mmHg 60%
    07:00 +22°C° 0 mm 1 mps 740 mmHg 57%
    08:00 +23°C° 0 mm 1 mps 741 mmHg 55%
    09:00 +25°C° 0 mm 1 mps 740 mmHg 50%
    10:00 +27°C° 0 mm 1 mps 740 mmHg 46%
    11:00 +29°C° 0 mm 1 mps 740 mmHg 42%
    12:00 +29°C° 0 mm 1 mps 739 mmHg 39%
    13:00 +30°C° 0 mm 1 mps 739 mmHg 37%
    14:00 +31°C° 0 mm 1 mps 738 mmHg 34%
    15:00 +29°C° 0 mm 1 mps 738 mmHg 38%
    16:00 +28°C° 0 mm 2 mps 737 mmHg 42%
    17:00 +26°C° 0 mm 2 mps 737 mmHg 46%
    18:00 +25°C° 0 mm 2 mps 738 mmHg 49%
    19:00 +24°C° 0 mm 1 mps 738 mmHg 51%
    20:00 +23°C° 0 mm 1 mps 739 mmHg 53%
    21:00 +23°C° 0 mm 1 mps 738 mmHg 55%
    22:00 +22°C° 0 mm 1 mps 738 mmHg 56%
    23:00 +20°C° 0 mm 0 mps 738 mmHg 58%

    10 December, Tuesday

    Time Temperature Precipitation Wind Pressure Humidity
    00:00 +20°C° 0 mm 0 mps 738 mmHg 58%
    01:00 +19°C° 0 mm 0 mps 738 mmHg 59%
    02:00 +19°C° 0 mm 0 mps 737 mmHg 59%
    03:00 +19°C° 0 mm 0 mps 737 mmHg 61%
    04:00 +18°C° 0 mm 0 mps 737 mmHg 63%
    05:00 +18°C° 0 mm 0 mps 737 mmHg 64%
    06:00 +19°C° 0 mm 0 mps 738 mmHg 61%
    07:00 +20°C° 0 mm 0 mps 739 mmHg 59%
    08:00 +21°C° 0 mm 0 mps 739 mmHg 56%
    09:00 +23°C° 0 mm 0 mps 739 mmHg 51%
    10:00 +25°C° 0 mm 0 mps 739 mmHg 45%
    11:00 +27°C° 0 mm 0 mps 739 mmHg 40%
    12:00 +30°C° 0 mm 1 mps 738 mmHg 38%
    13:00 +30°C° 0 mm 1 mps 737 mmHg 35%
    14:00 +31°C° 0 mm 1 mps 737 mmHg 32%
    15:00 +29°C° 0 mm 1 mps 736 mmHg 36%
    16:00 +28°C° 0 mm 1 mps 736 mmHg 40%
    17:00 +26°C° 0 mm 1 mps 736 mmHg 43%
    18:00 +25°C° 0 mm 1 mps 736 mmHg 45%
    19:00 +24°C° 0 mm 1 mps 737 mmHg 47%
    20:00 +23°C° 0 mm 1 mps 737 mmHg 49%
    21:00 +23°C° 0 mm 1 mps 737 mmHg 50%
    22:00 +22°C° 0 mm 1 mps 737 mmHg 51%
    23:00 +22°C° 0 mm 1 mps 737 mmHg 53%

    11 December, Wednesday

    Time Temperature Precipitation Wind Pressure Humidity
    00:00 +21°C° 0 mm 1 mps 737 mmHg 54%
    01:00 +21°C° 0 mm 1 mps 736 mmHg 54%
    02:00 +21°C° 0 mm 1 mps 736 mmHg 55%
    03:00 +18°C° 0 mm 0 mps 736 mmHg 57%
    04:00 +18°C° 0 mm 0 mps 736 mmHg 58%
    05:00 +17°C° 0 mm 0 mps 736 mmHg 60%
    06:00 +19°C° 0 mm 0 mps 737 mmHg 57%
    07:00 +20°C° 0 mm 0 mps 738 mmHg 55%
    08:00 +21°C° 0 mm 0 mps 738 mmHg 52%
    09:00 +23°C° 0 mm 0 mps 738 mmHg 47%
    10:00 +25°C° 0 mm 0 mps 738 mmHg 42%
    11:00 +28°C° 0 mm 0 mps 738 mmHg 37%
    12:00 +30°C° 0 mm 1 mps 737 mmHg 34%
    13:00 +30°C° 0 mm 1 mps 736 mmHg 32%
    14:00 +31°C° 0 mm 1 mps 736 mmHg 29%
    15:00 +29°C° 0 mm 1 mps 736 mmHg 33%
    16:00 +28°C° 0 mm 1 mps 735 mmHg 36%
    17:00 +26°C° 0 mm 1 mps 735 mmHg 40%
    18:00 +25°C° 0 mm 1 mps 736 mmHg 43%
    19:00 +24°C° 0 mm 2 mps 736 mmHg 46%
    20:00 +23°C° 0 mm 2 mps 737 mmHg 49%
    21:00 +23°C° 0 mm 1 mps 737 mmHg 52%
    22:00 +22°C° 0 mm 1 mps 737 mmHg 55%
    23:00 +22°C° 0 mm 1 mps 737 mmHg 58%

    12 December, Thursday

    Time Temperature Precipitation Wind Pressure Humidity
    00:00 +21°C° 0 mm 1 mps 736 mmHg 60%
    01:00 +21°C° 0 mm 1 mps 736 mmHg 61%
    02:00 +21°C° 0 mm 1 mps 736 mmHg 63%
    03:00 +20°C° 0 mm 1 mps 736 mmHg 64%
    04:00 +20°C° 0 mm 1 mps 736 mmHg 65%
    05:00 +20°C° 0 mm 1 mps 736 mmHg 66%
    06:00 +21°C° 0 mm 1 mps 737 mmHg 64%
    07:00 +22°C° 0 mm 1 mps 738 mmHg 61%
    08:00 +23°C° 0 mm 2 mps 738 mmHg 59%
    09:00 +25°C° 0 mm 2 mps 738 mmHg 54%
    10:00 +27°C° 0 mm 2 mps 738 mmHg 49%
    11:00 +29°C° 0 mm 2 mps 738 mmHg 44%
    12:00 +30°C° 0 mm 2 mps 737 mmHg 40%
    13:00 +31°C° 0 mm 1 mps 737 mmHg 36%
    14:00 +31°C° 0 mm 1 mps 736 mmHg 33%
    15:00 +30°C° 0 mm 1 mps 736 mmHg 36%
    16:00 +28°C° 0 mm 1 mps 736 mmHg 40%
    17:00 +27°C° 0 mm 1 mps 736 mmHg 43%
    18:00 +26°C° 0 mm 1 mps 736 mmHg 46%
    19:00 +25°C° 0 mm 1 mps 737 mmHg 49%
    20:00 +24°C° 0 mm 1 mps 737 mmHg 52%
    21:00 +23°C° 0 mm 1 mps 737 mmHg 55%
    22:00 +23°C° 0 mm 1 mps 737 mmHg 57%
    23:00 +21°C° 0 mm 2 mps 737 mmHg 60%
    Show more